Regional Weather Roundup
Issued by NWS

Home | Current Version | Previous Version | Text Only | Print | Product List | Glossary On
Versions: 1 2 3 4 5 6 7 8 9 10 11 12 13 14 15 16 17 18 19 20 21 22 23 24 25 26 27 28 29 30 31 32 33 34 35 36 37 38 39 40 41 42 43 44 45 46 47 48 49 50
000
ASUS43 KOAX 031110
RWRNE

WEATHER ROUNDUP FOR NEBRASKA
NATIONAL WEATHER SERVICE OMAHA NE
500 AM CST TUE MAR 03 2015

NOTES: SATELLITE DATA IS BEING USED TO AUGMENT CLOUD COVER ABOVE
       12000 FEET.
       "FAIR" INDICATES FEW OR NO CLOUDS BELOW 12,000 FEET WITH NO
       SIGNIFICANT WEATHER AND/OR OBSTRUCTIONS TO VISIBILITY.

  * THESE STATIONS DO NOT REPORT WEATHER SUCH AS RAIN...SNOW OR FOG.

NEZ001>004-019>022-054>056-031200-
NEBRASKA PANHANDLE

CITY           SKY/WX    TMP DP  RH WIND       PRES   REMARKS
SCOTTSBLUFF    LGT SNOW  27  22  81 N20       29.76R WCI  13
ALLIANCE       FLURRIES  26  22  84 N30G38    29.69R WCI  10
CHADRON        FOG       22  19  89 N17G30    29.83R VSB 1/2 WCI   8
KIMBALL        LGT SNOW  28  27  94 N20G29    29.65R WCI  15
SIDNEY         MIX PCPN  29  27  92 NW18      29.68R FOG     WCI  16
$$

NEZ057>060-069>072-079>082-031200-
SOUTHWEST NEBRASKA

CITY           SKY/WX    TMP DP  RH WIND       PRES   REMARKS
NORTH PLATTE   CLOUDY    28  24  85 NW9       29.64R WCI  19
IMPERIAL       FOG       28  26  92 NW10      29.63R VSB 3/4 WCI  19
LEXINGTON      CLOUDY    28  23  81 CALM      29.60F
MCCOOK         CLOUDY    30  23  75 N7        29.62R WCI  23
OGALLALA       FOG       29  29  99 CALM      29.65R VSB 3/4
$$

NEZ005>010-023>029-035>040-094-031200-
NORTH CENTRAL NEBRASKA

CITY           SKY/WX    TMP DP  RH WIND       PRES   REMARKS
VALENTINE      LGT SNOW  30  27  88 NW24G38   29.66R FOG     WCI  16
AINSWORTH      CLOUDY    28  27  94 W9        29.64R FOG     WCI  19
BROKEN BOW     CLOUDY    27  22  81 W7        29.61R WCI  19
O`NEILL        LGT SNOW  29  24  81 SW6       29.62F WCI  23
ORD            CLOUDY    27  21  78 S3        29.58F
THEDFORD       CLOUDY    29  28  96 W7        29.66R FOG     WCI  22
$$

NEZ041-046>049-061>064-073>077-083>087-031200-
SOUTH CENTRAL NEBRASKA

CITY           SKY/WX    TMP DP  RH WIND       PRES   REMARKS
GRAND ISLAND   CLOUDY    29  25  85 CALM      29.63F FOG
AURORA         CLOUDY    30  26  84 CALM      29.63S
HASTINGS       CLOUDY    30  24  78 CALM      29.62R
HEBRON         CLOUDY    34  29  83 S9        29.62F HAZE    WCI  27
HOLDREGE       CLOUDY    29  24  81 N6        29.60R WCI  23
KEARNEY *      CLOUDY    28  21  74 CALM      29.62R
YORK           CLOUDY    32  27  80 S5        29.64S WCI  27
$$

NEZ011>018-030>034-042>045-031200-
NORTHEAST NEBRASKA

CITY           SKY/WX    TMP DP  RH WIND       PRES   REMARKS
NORFOLK        CLOUDY    29  26  89 SW7       29.65R FOG     WCI  22
ALBION         CLOUDY    29  23  76 SW6       29.64S WCI  23
BLAIR          CLOUDY    31  28  85 S12       29.65F FOG     WCI  22
COLUMBUS *     CLOUDY    30  21  69 S8        29.66R WCI  23
FREMONT        CLOUDY    32  28  84 SE8       29.66F WCI  25
TEKAMAH        CLOUDY    32  25  75 S10       29.68F WCI  24
WAYNE          CLOUDY    29  22  76 CALM      29.65F
$$

NEZ050>053-065>068-078-088>093-031200-
SOUTHEAST NEBRASKA

CITY           SKY/WX    TMP DP  RH WIND       PRES   REMARKS
LINCOLN        CLOUDY    31  30  96 SE9       29.66F FOG     WCI  23
OMAHA EPPLEY   FRZ DRZL  31  28  89 S14       29.67F WCI  21
BEATRICE       CLOUDY    33  32  97 S13       29.66F FOG     WCI  24
FALLS CITY     CLOUDY    34  32  92 S9        29.71F FOG     WCI  27
NEBRASKA CITY  CLOUDY    32  32 100 S7        29.69F FOG     WCI  26
PLATTSMOUTH    CLOUDY    31  28  90 SE7       29.67F FOG     WCI  24
$$

NEZ044-045-051>053-067-031200-
OMAHA AREA

CITY           SKY/WX    TMP DP  RH WIND       PRES   REMARKS
OMAHA EPPLEY   FRZ DRZL  31  28  89 S14       29.67F WCI  21
BLAIR          CLOUDY    31  28  85 S12       29.65F FOG     WCI  22
FREMONT        CLOUDY    32  28  84 SE8       29.66F WCI  25
MILLARD        CLOUDY    32  29  91 SE5       29.67F FOG     WCI  27
OFFUTT AFB     DRIZZLE   31  29  90 SE12      29.66F FOG     WCI  22
PLATTSMOUTH    CLOUDY    31  28  90 SE7       29.67F FOG     WCI  24
WAHOO          CLOUDY    32  28  86 S10       29.66F FOG     WCI  23
$$


USA.gov is the U.S. government's official web portal to all federal, state and local government web resources and services.